Location: Newark
(35.6799°N, 139.7636°E)
Time: 02:57:54
(UTC+00:00)

Vanguard 3 - Pass Details

Date: 16 December 2019
Orbit: 507 x 3263 km, 33.4° (Epoch: 21 January)

Event Time Altitude Azimuth Distance (km) Brightness Sun altitude
Exits shadow 19:55:18 14° 211° (SSW) 1,832 8.8 -21.4°
Maximum altitude 19:58:50 34° 150° (SSE) 1,314 8.6 -20.7°
Drops below altitude 10° 20:05:04 10° 88° (E) 3,093 11.2 -19.5°
Sets 20:09:01 0° 81° (E) 4,538 12.1 -18.7°
